Location: Nachod
(50.4170°N, 16.1670°E)
Time: 02:29:33
(UTC+02:00)

ISS - Pass Details

Date: 31 March 2019
Orbit: 408 x 410 km, 51.6° (Epoch: 23 April)

Event Time Altitude Azimuth Distance (km) Brightness Sun altitude
Rises 21:00:14 0° 282° (WNW) 2,338 1.6 -15.2°
Reaches altitude 10° 21:02:19 10° 283° (WNW) 1,476 0.3 -15.5°
Maximum altitude 21:05:38 84° 14° (NNE) 416 -3.9 -16.0°
Enters shadow 21:06:40 41° 98° (E) 607 -3.4 -16.1°
